TimeCDT,TemperatureF,Dew PointF,Humidity,Sea Level PressureIn,VisibilityMPH,Wind Direction,Wind SpeedMPH,Gust SpeedMPH,PrecipitationIn,Events,Conditions,WindDirDegrees,DateUTC
12:53 AM,57.0,48.0,72,29.92,10.0,NW,3.5,-,N/A,,Clear,310,2013-06-12 05:53:00
1:53 AM,53.1,48.0,83,29.90,10.0,Calm,Calm,-,N/A,,Clear,0,2013-06-12 06:53:00
2:53 AM,53.1,48.9,86,29.89,10.0,Calm,Calm,-,N/A,,Clear,0,2013-06-12 07:53:00
3:53 AM,53.1,50.0,89,29.90,10.0,Calm,Calm,-,N/A,,Clear,0,2013-06-12 08:53:00
4:53 AM,57.0,52.0,83,29.88,10.0,North,5.8,-,N/A,,Clear,360,2013-06-12 09:53:00
5:53 AM,55.9,53.1,90,29.89,10.0,NNW,3.5,-,N/A,,Clear,340,2013-06-12 10:53:00
6:53 AM,61.0,53.1,75,29.89,10.0,Calm,Calm,-,N/A,,Clear,0,2013-06-12 11:53:00
7:53 AM,60.1,53.1,78,29.93,10.0,WNW,4.6,-,N/A,,Partly Cloudy,300,2013-06-12 12:53:00
8:53 AM,66.0,51.1,59,29.89,10.0,North,4.6,-,N/A,,Clear,10,2013-06-12 13:53:00
9:53 AM,69.1,53.1,57,29.88,10.0,NE,5.8,-,N/A,,Clear,40,2013-06-12 14:53:00
10:53 AM,69.1,54.0,58,29.90,10.0,NE,6.9,-,N/A,,Clear,40,2013-06-12 15:53:00
11:53 AM,69.1,52.0,54,29.92,10.0,North,5.8,-,N/A,,Mostly Cloudy,10,2013-06-12 16:53:00
12:53 PM,70.0,48.9,47,29.92,10.0,North,12.7,-,N/A,,Mostly Cloudy,360,2013-06-12 17:53:00
1:53 PM,70.0,51.1,51,29.90,10.0,North,9.2,-,0.00,,Overcast,10,2013-06-12 18:53:00
2:53 PM,71.1,51.1,49,29.92,10.0,NNW,10.4,-,N/A,,Mostly Cloudy,340,2013-06-12 19:53:00
3:53 PM,71.1,48.0,44,29.93,10.0,North,15.0,20.7,N/A,,Clear,350,2013-06-12 20:53:00
4:53 PM,70.0,48.9,47,29.93,10.0,NNW,6.9,-,N/A,,Clear,330,2013-06-12 21:53:00
5:53 PM,71.1,46.9,42,29.93,9.0,NNW,15.0,-,N/A,,Mostly Cloudy,340,2013-06-12 22:53:00
6:53 PM,69.1,48.0,47,29.94,10.0,North,17.3,23.0,N/A,,Mostly Cloudy,360,2013-06-12 23:53:00
7:53 PM,66.9,46.0,47,29.97,10.0,North,11.5,-,N/A,,Clear,10,2013-06-13 00:53:00
8:53 PM,64.9,48.0,54,29.99,10.0,North,8.1,-,N/A,,Clear,350,2013-06-13 01:53:00
9:53 PM,57.9,48.0,70,30.01,10.0,NNW,4.6,-,N/A,,Clear,330,2013-06-13 02:53:00
10:53 PM,55.9,48.0,75,30.02,10.0,NNW,5.8,-,N/A,,Clear,340,2013-06-13 03:53:00
11:53 PM,52.0,48.0,86,30.05,10.0,NNW,6.9,-,N/A,,Clear,330,2013-06-13 04:53:00